STARLINK-3235, 50200

Orbit data source: Space-Track

STARLINK-3235, 50200 is a payload satellite owned by SpaceX/Seattle (US) in LEO that was launched on Sat, 18 Dec 2021 UTC via an FALCON 9 launch vehicle from the Air Force Western Test Range (AFWTR). Payload-class satellites include a variety of spacecraft equipped with specific instruments for various scientific and technological missions. These include communications satellites like Starlink; space stations such as the ISS; scientific satellites like the Hubble; Earth observation satellites from companies like Planet Labs, Umbra, and HawkEye 360; GPS; miniature CubeSats for education and research; and military/defense satellites.

Loading next visibility...
Identifier
50200, 2021-125AW
Orbit
LEO
Country
Flag of USUS
Related business
Manufacturer
SpaceX/Seattle
Mission
Operational Commercial Communications
Bus & Motor
STARLINK, Unknown motor
Mass
290 kg wet, ~270 kg dry
Launch date (UTC)
2021-12-18 (5 years ago)
Launch vehicle
FALCON 9
Launch site
Air Force Western Test Range (AFWTR)
Object type
Payload
Rocket body
Debris
Shape & HBR
Box + 1 Pan, 10.1 m
Radar Cross Section
13.562 m², Large (>1 m²)

Expand to show TLE details & history
Last TLE update: 12 hours ago

TLE from 12 hours ago
0 STARLINK-3235
1 50200U 21125AW  26169.63143884 -.00000485  00000-0 -12362-4 0  9996
2 50200  53.1600 145.8358 0001338  76.5976 283.5165 15.08833509251980
Epoch: 2026-06-18T15:09Z
TLE epoch observation values (Epoch: 2026-06-18T15:09:16.315Z)
Latitude
Longitude
11.64583°
Altitude
540.438 km
Speed
7.593 km/s
True Right ascension
09h 43m 20s
True Declination
0° 00' 00"
Sunlit
Object was in daylight at epoch
Visualization orbit readout
Latitude
Unknown
Longitude
Unknown
Altitude
Unknown
Speed
Unknown
Apparent Right ascension
Unknown
Apparent Declination
Unknown
Sunlit
N/A
Visualization observer readout
Local Sidereal Time
14:07:43
Azimuth
Unknown
Elevation
Unknown
Doppler factor
Unknown
Orbital elements
Apogee altitude
540.943 km
Perigee altitude
539.092 km
Semi-major axis
6,918.154 km
Eccentricity
0.00013
Inclination
53.16°
RAAN
145.8358°
Arg. of periapsis
76.5976°
True anomaly
283.50159°
Mean anomaly
283.5165°
Eccentric anomaly
283.50905°
Mean motion
3.77188 °/min
Orbital period
95.44 mins
BSTAR
-0.000012362
Loading maneuver chart data...
Computing Atmospheric mass density...

Documentation

Showing up to 5 results
|